EW3845 Weather Reports


Display with metric or nautical units.
time (UTC)temp
F
wind
direction
speed
MPH
gust
MPH
rain 1hr
in
rain 24hr
in
rain mn
in
humidity
%
barometer
mb
20260904184600 63 290 0.0 0.0 0.00 0.11 0.11 93 1013.8
20260904183059 63 290 0.0 0.0 0.00 0.11 0.11 93 1013.6
20260904181558 63 360 0.0 0.0 0.00 0.11 0.11 93 1013.3
20260904180057 63 290 0.0 0.0 0.00 0.55 0.11 93 1013.5
20260904180009 63 290 0.0 0.0 0.00 0.11 0.11 93 1013.2
20260904175608 63 290 0.0 0.0 0.00 0.55 0.11 93 1013.5
20260904175053 64 360 0.0 0.0 0.00 0.55 0.11 93 1013.4
20260904174545 64 360 0.0 0.0 0.00 0.55 0.11 92 1013.4
20260904174053 64 360 0.0 0.0 0.00 0.55 0.11 92 1013.2
20260904173545 64 360 0.0 0.0 0.00 0.55 0.11 92 1013.2
20260904173053 64 360 0.0 0.0 0.00 0.55 0.11 92 1013.1
20260904173007 63 360 0.0 0.0 0.00 0.11 0.11 92 1012.9
20260904172545 64 360 0.0 0.0 0.00 0.55 0.11 92 1012.9
20260904172051 64 360 0.0 0.0 0.00 0.55 0.11 92 1012.9
20260904171643 63 360 0.0 0.0 0.01 0.11 0.11 92 1012.6
20260904171542 64 360 0.0 0.0 0.04 0.55 0.11 92 1013.0
20260904171049 64 360 0.0 0.0 0.04 0.55 0.11 92 1013.0
20260904170601 64 360 0.0 0.0 0.08 0.55 0.11 92 1013.0
20260904170149 63 360 0.0 0.0 0.02 0.11 0.11 92 1012.7
20260904170045 64 360 0.0 0.0 0.12 0.55 0.11 92 1013.0
20260904165557 64 360 0.0 0.0 0.20 0.55 0.11 92 1012.9
20260904165103 64 360 0.0 0.0 0.20 0.55 0.11 92 1013.0
20260904164615 64 360 0.0 0.0 0.20 0.55 0.11 92 1012.9
20260904164042 64 360 0.0 0.0 0.20 0.55 0.11 91 1012.7
20260904163554 63 360 0.0 0.0 0.24 0.55 0.11 91 1012.8
20260904163143 63 360 0.0 0.0 0.05 0.11 0.11 91 1012.6
20260904163042 63 360 0.0 0.0 0.24 0.55 0.11 91 1013.0
20260904162555 63 288 0.0 0.0 0.28 0.55 0.11 90 1013.0
20260904162043 64 360 0.0 0.0 0.39 0.55 0.11 90 1012.7
20260904161554 64 304 0.0 0.0 0.51 0.51 0.10 90 1012.7
20260904161504 63 304 0.0 0.0 0.10 0.10 0.10 90 1012.4
20260904161102 64 290 0.0 0.0 0.51 0.51 0.10 89 1012.9
20260904160613 65 360 0.0 0.0 0.47 0.47 0.09 89 1013.1
20260904160158 64 360 0.0 0.0 0.09 0.09 0.09 89 1012.6
20260904160058 65 342 0.0 0.0 0.43 0.43 0.09 89 1013.0
20260904155551 66 360 0.0 0.0 0.35 0.35 0.07 89 1012.7
20260904155039 66 360 0.0 0.0 0.35 0.35 0.07 88 1012.6
20260904154653 66 360 0.0 0.0 0.07 0.07 0.07 88 1012.3
20260904154551 66 360 0.0 0.0 0.35 0.35 0.07 88 1012.6
20260904154057 66 360 0.0 0.0 0.35 0.35 0.07 87 1012.6
20260904153548 67 250 0.0 0.0 0.31 0.31 0.06 86 1012.6
20260904153158 67 304 0.0 0.0 0.06 0.06 0.06 85 1012.3
20260904153054 68 255 0.0 0.0 0.31 0.31 0.06 85 1012.6
20260904152546 69 360 0.0 0.0 0.28 0.28 0.06 83 1012.6
20260904152113 70 53 0.0 0.0 0.12 0.12 0.02 83 1012.4
20260904151649 71 221 0.0 0.0 0.00 0.00 0.00 85 1012.0
20260904151545 72 302 0.0 0.0 0.00 0.00 0.00 85 1012.2
20260904151054 72 295 0.0 0.0 0.00 0.00 0.00 84 1012.0
20260904150545 73 288 0.0 0.0 0.00 0.00 0.00 82 1012.0
20260904150156 73 284 0.0 0.0 0.00 0.00 0.00 81 1011.7
20260904150054 74 360 0.0 0.0 0.00 0.00 0.00 81 1012.0
20260904145549 75 360 0.0 0.0 0.00 0.00 0.00 78 1011.8
20260904145055 75 290 0.0 0.0 0.00 0.00 0.00 76 1011.2
20260904144646 74 288 0.0 0.0 0.00 0.00 0.00 76 1010.7
20260904144546 75 294 0.0 0.0 0.00 0.00 0.00 76 1011.1
20260904144052 75 360 0.0 0.0 0.00 0.00 0.00 77 1011.1
20260904143543 75 360 0.0 0.0 0.00 0.00 0.00 77 1011.2
20260904143049 75 307 0.0 0.0 0.00 0.00 0.00 77 1011.1
20260904143001 74 315 0.0 0.0 0.00 0.00 0.00 77 1010.9
20260904142600 75 286 0.0 0.0 0.00 0.00 0.00 77 1011.2
20260904142107 75 296 0.0 0.0 0.00 0.00 0.00 75 1011.3
20260904141556 75 292 0.0 0.0 0.00 0.00 0.00 75 1011.2
20260904141508 75 289 0.0 0.0 0.00 0.00 0.00 75 1010.9
20260904141104 75 290 0.0 0.0 0.00 0.00 0.00 75 1011.2
20260904140652 75 304 0.0 0.0 0.00 0.00 0.00 74 1011.1
20260904140023 75 293 0.0 0.0 0.00 0.00 0.00 74 1011.1
20260904134525 75 305 0.0 0.0 0.00 0.00 0.00 73 1011.1
20260904133122 76 298 0.0 0.0 0.00 0.00 0.00 74 1010.8
20260904131521 75 296 0.0 0.0 0.00 0.00 0.00 75 1011.0
20260904130021 75 295 0.0 0.0 0.00 0.00 0.00 74 1010.8
20260904124520 76 284 0.0 0.0 0.00 0.00 0.00 73 1010.9
20260904123019 76 286 0.0 0.0 0.00 0.00 0.00 72 1010.9
20260904121519 76 360 0.0 0.0 0.00 0.00 0.00 72 1010.9
20260904120022 76 287 0.0 0.0 0.00 0.00 0.00 72 1010.9
20260904114517 76 294 0.0 0.0 0.00 0.00 0.00 72 1011.0
20260904113013 76 295 0.0 0.0 0.00 0.00 0.00 73 1011.1
20260904111517 75 306 0.0 0.0 0.00 0.00 0.00 74 1011.3
20260904110012 75 294 0.0 0.0 0.00 0.00 0.00 75 1011.5
20260904104511 75 293 0.0 0.0 0.00 0.00 0.00 74 1011.4
20260904103011 75 287 0.0 0.0 0.00 0.00 0.00 74 1011.3
20260904101517 75 290 0.0 0.0 0.00 0.00 0.00 74 1011.2
20260904100008 76 291 0.0 0.0 0.00 0.01 0.00 75 1011.3
20260904094503 75 290 0.0 0.0 0.00 0.01 0.00 78 1011.5
20260904093100 74 360 0.0 0.0 0.00 0.01 0.00 80 1011.7
20260904091557 73 295 0.0 0.0 0.00 0.01 0.00 80 1011.8
20260904090056 73 288 0.0 0.0 0.00 0.02 0.00 80 1012.0
20260904084600 73 360 0.0 0.0 0.00 0.02 0.00 81 1012.3
20260904083550 73 296 0.0 0.0 0.00 0.12 0.00 80 1012.5
20260904083144 73 360 0.0 0.0 0.00 0.02 0.00 80 1012.2
20260904083042 73 291 0.0 0.0 0.00 0.12 0.00 80 1012.4
20260904082555 73 288 0.0 0.0 0.00 0.12 0.00 80 1012.4
20260904082101 73 360 0.0 0.0 0.00 0.12 0.00 81 1012.4
20260904081553 73 360 0.0 0.0 0.00 0.12 0.00 81 1012.3
20260904081504 73 292 0.0 0.0 0.00 0.02 0.00 81 1012.1
20260904081101 73 360 0.0 0.0 0.00 0.12 0.00 82 1012.3
20260904080652 73 305 0.0 0.0 0.00 0.12 0.00 82 1012.3
20260904080012 72 360 0.0 0.0 0.00 0.02 0.00 82 1012.0
20260904074508 72 360 0.0 0.0 0.00 0.02 0.00 84 1012.0
20260904073006 71 291 0.0 0.0 0.00 0.02 0.00 85 1012.2
20260904071504 71 287 0.0 0.0 0.00 0.02 0.00 85 1012.4
20260904070008 71 360 0.0 0.0 0.00 0.02 0.00 86 1012.6
20260904064600 70 360 0.0 0.0 0.00 0.02 0.00 87 1012.8
20260904063114 70 360 0.0 0.0 0.00 0.02 0.00 86 1012.8
20260904061557 69 360 0.0 0.0 0.00 0.02 0.00 87 1012.9
20260904060056 69 297 0.0 0.0 0.00 0.02 0.00 87 1013.1
20260904054556 69 284 0.0 0.0 0.00 0.02 0.00 88 1013.1
20260904053105 68 287 0.0 0.0 0.00 0.02 0.00 88 1013.1
20260904051552 68 279 0.0 0.0 0.00 0.02 0.00 88 1013.3
20260904050053 68 360 0.0 0.0 0.00 0.02 0.00 88 1013.2
20260904044558 68 360 0.0 0.0 0.00 0.02 0.00 87 1013.3
20260904043056 68 289 0.0 0.0 0.00 0.02 0.00 87 1013.4
20260904041548 68 295 0.0 0.0 0.00 0.02 0.00 87 1013.6
20260904040047 68 286 0.0 0.0 0.00 0.02 0.00 87 1013.6
20260904034545 68 360 0.0 0.0 0.00 0.02 0.00 88 1013.8
20260904033045 68 288 0.0 0.0 0.00 0.02 0.00 88 1013.8
20260904031546 69 292 0.0 0.0 0.00 0.02 0.00 88 1014.1
20260904030055 69 286 0.0 0.0 0.00 0.02 0.00 88 1014.1
20260904024541 69 360 0.0 0.0 0.00 0.02 0.00 88 1014.3
20260904023039 69 360 0.0 0.0 0.00 0.02 0.00 89 1014.4
20260904021549 68 360 0.0 0.0 0.00 0.02 0.00 89 1015.0
20260904020036 68 360 0.0 0.0 0.00 0.02 0.00 89 1015.0
20260904014537 69 296 0.0 0.0 0.00 0.02 0.00 89 1015.1
20260904013034 69 287 0.0 0.0 0.00 0.02 0.00 89 1015.3
20260904011530 69 286 0.0 0.0 0.00 0.02 0.00 90 1015.3
20260904010030 69 289 0.0 0.0 0.00 0.02 0.00 90 1015.4
20260904004529 69 360 0.0 0.0 0.00 0.02 0.00 90 1015.4
20260904003028 69 360 0.0 0.0 0.00 0.02 0.00 90 1015.5
20260904001526 69 286 0.0 0.0 0.00 0.02 0.00 90 1015.7
20260904000025 69 360 0.0 0.0 0.00 0.02 0.00 89 1015.8
20260903234524 69 293 0.0 0.0 0.00 0.02 0.00 89 1016.1
20260903233033 69 360 0.0 0.0 0.00 0.02 0.00 89 1016.2
20260903231538 69 288 0.0 0.0 0.00 0.02 0.00 88 1016.3
20260903230021 69 360 0.0 0.0 0.00 0.02 0.00 88 1016.2
20260903224520 69 360 0.0 0.0 0.00 0.02 0.00 88 1016.4
20260903223018 69 360 0.0 0.0 0.00 0.02 0.00 89 1016.5
20260903221518 69 287 0.0 0.0 0.00 0.02 0.00 89 1016.5
20260903220016 69 287 0.0 0.0 0.00 0.02 0.02 90 1016.7
20260903214515 69 296 0.0 0.0 0.00 0.02 0.02 89 1016.9
20260903213014 69 360 0.0 0.0 0.00 0.02 0.02 89 1017.0
20260903211514 69 360 0.0 0.0 0.00 0.02 0.02 88 1017.0
20260903210014 70 286 0.0 0.0 0.00 0.02 0.02 87 1017.1
20260903204514 70 360 0.0 0.0 0.00 0.02 0.02 86 1017.2
20260903203013 70 360 0.0 0.0 0.00 0.02 0.02 85 1017.2
20260903201512 70 360 0.0 0.0 0.00 0.02 0.02 85 1017.1
20260903200012 70 360 0.0 0.0 0.00 0.02 0.02 84 1017.2
20260903194512 70 360 0.0 0.0 0.00 0.02 0.02 84 1017.2
20260903193013 70 289 0.0 0.0 0.00 0.02 0.02 84 1017.0
20260903191525 70 288 0.0 0.0 0.00 0.02 0.02 84 1016.8
20260903190047 70 288 0.0 0.0 0.00 0.12 0.02 83 1017.4
20260903185557 70 288 0.0 0.0 0.00 0.12 0.02 83 1017.4